Regional Weather Roundup
Issued by NWS

Home | Current Version | Previous Version | Text Only | Print | Product List | Glossary Off
Versions: 1 2 3 4 5 6 7 8 9 10 11 12 13 14 15 16 17 18 19 20 21 22 23 24 25 26 27

000
ASUS45 KBOU 260607
RWRCO

WEATHER ROUNDUP FOR COLORADO
NATIONAL WEATHER SERVICE DENVER/BOULDER CO
1200 AM MDT SUN MAR 26 2017

NOTE: "FAIR" INDICATES FEW OR NO CLOUDS BELOW 12000 FEET WITH NO
SIGNIFICANT WEATHER AND/OR OBSTRUCTIONS TO VISIBILITY.

COZ001>005-013-030-031-260700-
...NORTHWEST COLORADO...

CITY           SKY/WX    TMP DP  RH WIND       PRES   REMARKS
CRAIG          CLOUDY    43  34  70 W5        29.92S
HAYDEN         CLOUDY    39  34  81 CALM      29.92S
MEEKER         CLOUDY    42  33  70 CALM      29.91S
MOUNT WERNER   NOT AVBL
STEAMBOAT SPGS CLOUDY    38  36  91 CALM      29.92F
WALDEN         NOT AVBL
$$

COZ006>008-011-260700-
...WEST CENTRAL VALLEYS...

CITY           SKY/WX    TMP DP  RH WIND       PRES   REMARKS
GRAND JUNCTION CLOUDY    48  35  60 N9        29.86F
MONTROSE       CLOUDY    45  38  76 S7        29.92F
EAGLE          FAIR      39  34  82 E7        29.93S
RIFLE          FAIR      41  35  79 W3        29.90R
DELTA          MOCLDY    47  33  58 NE5       29.89S
NUCLA          CLOUDY    41  37  87 SE6       29.97S
$$

COZ017>023-064>068-260700-
...SOUTHWEST COLORADO...

CITY           SKY/WX    TMP DP  RH WIND       PRES   REMARKS
DURANGO        LGT RAIN  36  33  89 S5        29.93F
CORTEZ         CLOUDY    40  36  86 E3        29.96S
PAGOSA SPRINGS LGT SNOW  36  35  96 SW3       29.95F
TELLURIDE      LGT SNOW  32  32 100 NW8       29.97  VSB 3/4 WCI  25
WOLF CREEK PAS HVY SNOW  23  23 100 S14G23    30.02F VSB 1/4 WCI  11
$$

COZ009-010-012-014-032>034-037-058>063-260700-
...CENTRAL COLORADO...

CITY           SKY/WX    TMP DP  RH WIND       PRES   REMARKS
ASPEN          CLOUDY    36  33  89 SW3       29.91F
BUENA VISTA    MOCLDY    39  29  65 NW13      29.88F
COPPER MTN     SNOW      28  23  80 MISG      30.00S VSB<1/4
BERTHOUD PASS  HVY SNOW  21  10  63 N15G28    30.00F VSB<1/4 WCI   8
COTTONWOOD PAS MOCLDY    36  27  69 W7        29.94F
GUNNISON       MOCLDY    36  30  79 CALM      29.93S
KREMMLING      CLOUDY    41  37  87 E5        29.94S
LEADVILLE      FAIR      28  25  88 N8        29.93F WCI  20
MONARCH PASS   CLOUDY    28  19  69 W12       30.10F WCI  18
SALIDA         FAIR      40  31  69 S5        29.96S
SUNLIGHT       FAIR      25  23  93 W7        30.02S WCI  17
WILKERSON PASS MOCLDY    28  25  86 S7        30.00S WCI  21
$$

COZ069>075-260700-
...SAN LUIS VALLEY/SANGRE DE CRISTO MOUNTAINS...

CITY           SKY/WX    TMP DP  RH WIND       PRES   REMARKS
ALAMOSA        LGT RAIN  37  36  96 S8        29.90F
LA VETA PASS   NOT AVBL
SAGUACHE       CLOUDY    43  27  52 CALM      29.90R
$$

COZ035-036-038>040-260700-
...NORTHERN COLORADO FRONT RANGE...

CITY           SKY/WX    TMP DP  RH WIND       PRES   REMARKS
DENVER INTL AP MOCLDY    48  34  58 S10       29.80F
DMNS CITY PARK   N/A     50  23  34 NW5       29.82R
AURORA         MOCLDY    46  33  62 S5        29.82F
FRONT RANGE AP FAIR      48  34  57 SW9       29.82F
ERIE MUNI ARPT FAIR      47  32  56 NW7       29.81F
BOULDER MUN AP CLOUDY    54  28  37 S5        29.82S
CENTENNIAL     MOCLDY    46  32  58 SW6       29.83F
BROOMFIELD     FAIR      50  32  50 W20G25    29.82F
FORT COLLINS   FAIR      49  32  52 E5        29.82F
LONGMONT       CLOUDY    54  30  40 NW5       29.83R
$$

COZ041-046-047-076>085-087-088-260700-
...PIKES PEAK/PALMER DIVIDE AND SOUTHERN FOOTHILLS...

CITY           SKY/WX    TMP DP  RH WIND       PRES   REMARKS
COLO. SPRINGS  FAIR      41  27  57 NE7       29.85F
A. F. ACADEMY  FAIR      39  31  71 NE9       29.85F
SCHRIEVER AFB  FAIR      41  26  56 NE8       29.85F
ELLICOTT         N/A    N/A N/A N/A E10       29.83F
FALCON         FAIR      38  25  60 N5        29.88F
FORT CARSON    FAIR      39  27  61 NW7       29.83F
LIMON          FAIR      40  35  83 E5        29.85F
MONUMENT HILL  FAIR      36  30  80 SE10      29.88F
TRINIDAD       MOCLDY    46  33  60 N8        29.79F
$$

COZ042>045-048>051-090-091-260700-
...NORTHEAST COLORADO...

CITY           SKY/WX    TMP DP  RH WIND       PRES   REMARKS
GREELEY ARPT   FAIR      45  34  65 NE7       29.83S
AKRON          FAIR      43  32  65 SE13      29.85S
BURLINGTON     FAIR      41  37  86 SE13      29.86R
WRAY           NOT AVBL
STERLING       FAIR      45  34  65 S6        29.83S
HOLYOKE        FAIR      41  34  75 SE8       29.86R
FORT MORGAN    FAIR      43  32  64 SE6       29.85R
$$

COZ086-089-092>099-260700-
...SOUTHEAST COLORADO...

CITY           SKY/WX    TMP DP  RH WIND       PRES   REMARKS
PUEBLO         FAIR      45  30  55 N12       29.78F
LA JUNTA       FAIR      48  28  46 E13       29.78F
LAMAR          FAIR      41  22  46 NE7       29.80F
SPRINGFIELD      N/A     42  25  50 SE12      29.82F
$$




USA.gov is the U.S. government's official web portal to all federal, state and local government web resources and services.